Time,TemperatureF,DewpointF,PressureIn,WindDirection,WindDirectionDegrees,WindSpeedMPH,WindSpeedGustMPH,Humidity,HourlyPrecipIn,Conditions,Clouds,dailyrainin,SolarRadiationWatts/m^2,SoftwareType,DateUTC
2013-11-26 00:03:00,28.0,4.0,-100.00,WNW,295,3.0,8.0,35,0.00,,,-99.99,0.000000,,2013-11-26 05:03:00,
2013-11-26 00:43:00,28.0,5.0,-100.00,NW,317,2.0,8.0,36,0.00,,,0.00,0.000000,,2013-11-26 05:43:00,
2013-11-26 00:53:00,28.0,5.0,-100.00,NW,317,2.0,8.0,36,0.00,,,0.00,0.000000,,2013-11-26 05:53:00,
2013-11-26 01:02:00,28.0,5.0,-100.00,NW,317,2.0,8.0,36,0.00,,,0.00,0.000000,,2013-11-26 06:02:00,
2013-11-26 01:42:00,26.0,19.0,-100.00,West,271,4.0,13.0,74,0.00,,,0.00,0.000000,,2013-11-26 06:42:00,
2013-11-26 01:52:00,26.0,19.0,-100.00,West,271,4.0,13.0,74,0.00,,,0.00,0.000000,,2013-11-26 06:52:00,
2013-11-26 02:02:00,26.0,19.0,-100.00,West,271,4.0,13.0,74,0.00,,,0.00,0.000000,,2013-11-26 07:02:00,
2013-11-26 02:42:00,26.0,23.0,-100.00,WNW,299,2.0,8.0,89,0.00,,,0.00,0.000000,,2013-11-26 07:42:00,
2013-11-26 02:52:00,26.0,23.0,-100.00,WNW,299,2.0,8.0,89,0.00,,,0.00,0.000000,,2013-11-26 07:52:00,
2013-11-26 03:02:00,26.0,23.0,-100.00,WNW,299,2.0,8.0,89,0.00,,,0.00,0.000000,,2013-11-26 08:02:00,
2013-11-26 03:42:00,25.0,21.0,-100.00,SW,234,3.0,7.0,86,0.00,,,0.00,0.000000,,2013-11-26 08:42:00,
2013-11-26 03:52:00,25.0,21.0,-100.00,SW,234,3.0,7.0,86,0.00,,,0.00,0.000000,,2013-11-26 08:52:00,
2013-11-26 04:02:00,25.0,21.0,-100.00,SW,234,3.0,7.0,86,0.00,,,0.00,0.000000,,2013-11-26 09:02:00,
2013-11-26 04:44:00,25.0,22.0,-100.00,NW,306,2.0,8.0,89,0.00,,,0.00,0.000000,,2013-11-26 09:44:00,
2013-11-26 04:54:00,25.0,22.0,-100.00,NW,306,2.0,8.0,89,0.00,,,0.00,0.000000,,2013-11-26 09:54:00,
2013-11-26 05:03:00,25.0,22.0,-100.00,NW,306,2.0,8.0,89,0.00,,,0.00,0.000000,,2013-11-26 10:03:00,
2013-11-26 05:43:00,25.0,23.0,-100.00,South,183,1.0,6.0,92,0.00,,,0.00,0.000000,,2013-11-26 10:43:00,
2013-11-26 05:53:00,25.0,23.0,-100.00,South,183,1.0,6.0,92,0.00,,,0.00,0.000000,,2013-11-26 10:53:00,
2013-11-26 06:02:00,25.0,23.0,-100.00,South,183,1.0,6.0,92,0.00,,,0.00,0.000000,,2013-11-26 11:02:00,
2013-11-26 06:42:00,25.0,24.0,-100.00,SE,133,0.0,2.0,94,0.00,,,0.00,0.000000,,2013-11-26 11:42:00,
2013-11-26 06:53:00,25.0,24.0,-100.00,SE,133,0.0,2.0,94,0.00,,,0.00,0.000000,,2013-11-26 11:53:00,
2013-11-26 07:02:00,25.0,24.0,-100.00,SE,133,0.0,2.0,94,0.00,,,0.00,0.000000,,2013-11-26 12:02:00,
2013-11-26 07:42:00,25.0,24.0,-100.00,ESE,119,2.0,4.0,94,0.00,,,0.00,0.000000,,2013-11-26 12:42:00,
2013-11-26 07:52:00,25.0,24.0,-100.00,ESE,119,2.0,4.0,94,0.00,,,0.00,0.000000,,2013-11-26 12:52:00,
2013-11-26 08:02:00,25.0,24.0,-100.00,ESE,119,2.0,4.0,94,0.00,,,0.00,0.000000,,2013-11-26 13:02:00,
2013-11-26 08:42:00,25.0,23.0,-100.00,SE,144,2.0,4.0,93,0.00,,,0.00,2.000000,,2013-11-26 13:42:00,
2013-11-26 08:52:00,25.0,23.0,-100.00,SE,144,2.0,4.0,93,0.00,,,0.00,2.000000,,2013-11-26 13:52:00,
2013-11-26 09:03:00,25.0,23.0,-100.00,SE,144,2.0,4.0,93,0.00,,,0.00,2.000000,,2013-11-26 14:03:00,
2013-11-26 09:42:00,25.0,22.0,-100.00,ESE,121,3.0,5.0,89,0.00,,,0.00,6.000000,,2013-11-26 14:42:00,
2013-11-26 09:52:00,25.0,22.0,-100.00,ESE,121,3.0,5.0,89,0.00,,,0.00,6.000000,,2013-11-26 14:52:00,
2013-11-26 10:02:00,25.0,22.0,-100.00,ESE,121,3.0,5.0,89,0.00,,,0.00,6.000000,,2013-11-26 15:02:00,
2013-11-26 10:44:00,26.0,23.0,-100.00,ESE,122,3.0,5.0,90,0.00,,,0.00,12.000000,,2013-11-26 15:44:00,
2013-11-26 10:55:00,26.0,23.0,-100.00,ESE,122,3.0,5.0,90,0.00,,,0.00,12.000000,,2013-11-26 15:55:00,
2013-11-26 11:04:00,26.0,23.0,-100.00,ESE,122,3.0,5.0,90,0.00,,,0.00,12.000000,,2013-11-26 16:04:00,
2013-11-26 11:43:00,25.0,22.0,-100.00,SE,130,2.0,6.0,89,0.00,,,0.00,13.000000,,2013-11-26 16:43:00,
2013-11-26 11:54:00,25.0,22.0,-100.00,SE,130,2.0,6.0,89,0.00,,,0.00,13.000000,,2013-11-26 16:54:00,
2013-11-26 12:03:00,25.0,22.0,-100.00,SE,130,2.0,6.0,89,0.00,,,0.00,13.000000,,2013-11-26 17:03:00,
2013-11-26 12:43:00,26.0,23.0,-100.00,ESE,114,2.0,6.0,89,0.00,,,0.00,16.000000,,2013-11-26 17:43:00,
2013-11-26 12:53:00,26.0,23.0,-100.00,ESE,114,2.0,6.0,89,0.00,,,0.00,16.000000,,2013-11-26 17:53:00,
2013-11-26 13:02:00,26.0,23.0,-100.00,ESE,114,2.0,6.0,89,0.00,,,0.00,16.000000,,2013-11-26 18:02:00,
2013-11-26 13:42:00,26.0,23.0,-100.00,ESE,105,4.0,9.0,89,0.00,,,0.00,11.000000,,2013-11-26 18:42:00,
2013-11-26 13:53:00,26.0,23.0,-100.00,ESE,105,4.0,9.0,89,0.00,,,0.00,11.000000,,2013-11-26 18:53:00,
2013-11-26 14:03:00,26.0,23.0,-100.00,ESE,105,4.0,9.0,89,0.00,,,0.00,11.000000,,2013-11-26 19:03:00,
2013-11-26 14:42:00,27.0,25.0,-100.00,SE,124,4.0,7.0,91,0.00,,,0.00,11.000000,,2013-11-26 19:42:00,
2013-11-26 14:52:00,27.0,25.0,-100.00,SE,124,4.0,7.0,91,0.00,,,0.00,11.000000,,2013-11-26 19:52:00,
2013-11-26 15:02:00,27.0,25.0,-100.00,SE,124,4.0,7.0,91,0.00,,,0.00,11.000000,,2013-11-26 20:02:00,
2013-11-26 15:42:00,27.0,26.0,-100.00,ESE,116,4.0,10.0,94,0.00,,,0.00,6.000000,,2013-11-26 20:42:00,
2013-11-26 15:53:00,27.0,26.0,-100.00,ESE,116,4.0,10.0,94,0.00,,,0.00,6.000000,,2013-11-26 20:53:00,
2013-11-26 16:02:00,27.0,26.0,-100.00,ESE,116,4.0,10.0,94,0.00,,,0.00,6.000000,,2013-11-26 21:02:00,
2013-11-26 16:44:00,28.0,27.0,-100.00,SE,130,4.0,10.0,95,0.00,,,0.00,1.000000,,2013-11-26 21:44:00,
2013-11-26 16:53:00,28.0,27.0,-100.00,SE,130,4.0,10.0,95,0.00,,,0.00,1.000000,,2013-11-26 21:53:00,
2013-11-26 17:03:00,28.0,27.0,-100.00,SE,130,4.0,10.0,95,0.00,,,0.00,1.000000,,2013-11-26 22:03:00,
2013-11-26 17:43:00,28.0,27.0,-100.00,SE,128,5.0,10.0,95,0.00,,,0.00,0.000000,,2013-11-26 22:43:00,
2013-11-26 17:53:00,28.0,27.0,-100.00,SE,128,5.0,10.0,95,0.00,,,0.00,0.000000,,2013-11-26 22:53:00,
2013-11-26 18:02:00,28.0,27.0,-100.00,SE,128,5.0,10.0,95,0.00,,,0.00,0.000000,,2013-11-26 23:02:00,
2013-11-26 18:43:00,29.0,28.0,-100.00,SE,125,3.0,11.0,96,0.00,,,0.00,0.000000,,2013-11-26 23:43:00,
2013-11-26 18:53:00,29.0,28.0,-100.00,SE,125,3.0,11.0,96,0.00,,,0.00,0.000000,,2013-11-26 23:53:00,
2013-11-26 19:03:00,29.0,28.0,-100.00,SE,125,3.0,11.0,96,0.00,,,0.00,0.000000,,2013-11-27 00:03:00,
2013-11-26 19:42:00,30.0,29.0,-100.00,SE,126,3.0,7.0,97,0.03,,,0.03,0.000000,,2013-11-27 00:42:00,
2013-11-26 19:52:00,30.0,29.0,-100.00,SE,126,3.0,7.0,97,0.03,,,0.03,0.000000,,2013-11-27 00:52:00,
2013-11-26 20:02:00,30.0,29.0,-100.00,SE,126,3.0,7.0,97,0.03,,,0.03,0.000000,,2013-11-27 01:02:00,
2013-11-26 20:42:00,30.0,29.0,-100.00,ESE,116,4.0,7.0,97,0.06,,,0.09,0.000000,,2013-11-27 01:42:00,
2013-11-26 20:52:00,30.0,29.0,-100.00,ESE,116,4.0,7.0,97,0.06,,,0.09,0.000000,,2013-11-27 01:52:00,
2013-11-26 21:02:00,30.0,29.0,-100.00,ESE,116,4.0,7.0,97,0.06,,,0.09,0.000000,,2013-11-27 02:02:00,
2013-11-26 21:42:00,31.0,31.0,-100.00,ESE,114,4.0,7.0,98,0.05,,,0.14,0.000000,,2013-11-27 02:42:00,
2013-11-26 21:52:00,31.0,31.0,-100.00,ESE,114,4.0,7.0,98,0.05,,,0.14,0.000000,,2013-11-27 02:52:00,
2013-11-26 22:02:00,31.0,31.0,-100.00,ESE,114,4.0,7.0,98,0.05,,,0.14,0.000000,,2013-11-27 03:02:00,
2013-11-26 22:44:00,31.0,31.0,-100.00,East,90,3.0,7.0,98,0.07,,,0.21,0.000000,,2013-11-27 03:44:00,
2013-11-26 22:54:00,31.0,31.0,-100.00,East,90,3.0,7.0,98,0.07,,,0.21,0.000000,,2013-11-27 03:54:00,
2013-11-26 23:04:00,31.0,31.0,-100.00,East,90,3.0,7.0,98,0.07,,,0.21,0.000000,,2013-11-27 04:04:00,
2013-11-26 23:43:00,32.0,32.0,-100.00,ENE,73,2.0,5.0,99,0.12,,,0.33,0.000000,,2013-11-27 04:43:00,
2013-11-26 23:53:00,32.0,32.0,-100.00,ENE,73,2.0,5.0,99,0.12,,,0.33,0.000000,,2013-11-27 04:53:00,